Location: Krakow
(50.0830°N, 19.9170°E)
Time: 17:19:59
(UTC+01:00)

Tiros 1 - Visible Passes

Search period start: 11 December 2023 00:00
Search period end: 21 December 2023 00:00
Orbit: 625 x 659 km, 48.4° (Epoch: 10 December)

Date Brightness Start Highest point End Pass type
(mag) Time Alt. Az. Time Alt. Az. Time Alt. Az.
11 Dec 10.2 03:07:24 12° E 03:07:24 12° E 03:07:42 10° E visible
11 Dec 7.1 04:44:58 74° S 04:44:58 74° S 04:49:46 10° E visible
11 Dec 7.8 06:22:32 11° W 06:26:52 47° SSW 06:31:27 10° SE visible
12 Dec 9.7 03:30:54 19° E 03:30:54 19° E 03:32:15 10° E visible
12 Dec 7.3 05:08:29 51° WSW 05:09:28 66° S 05:14:13 10° ESE visible
12 Dec 8.5 06:46:57 10° W 06:51:10 31° SSW 06:55:21 10° SSE visible
13 Dec 9.0 03:54:25 29° E 03:54:25 29° E 03:56:46 10° E visible
13 Dec 7.6 05:31:59 31° WSW 05:33:54 50° SSW 05:38:31 10° SE visible
14 Dec 8.2 04:17:57 43° ESE 04:17:57 43° ESE 04:21:14 10° ESE visible
14 Dec 8.2 05:55:31 19° W 05:58:13 34° SSW 06:02:30 10° SE visible
15 Dec 7.7 04:41:30 50° S 04:41:30 50° S 04:45:35 10° ESE visible
15 Dec 8.9 06:19:04 11° W 06:22:22 20° SW 06:25:53 10° S visible
16 Dec 10.0 03:27:30 14° ESE 03:27:30 14° ESE 03:28:15 10° ESE visible
16 Dec 8.0 05:05:05 36° SSW 05:05:15 36° SSW 05:09:37 10° SE visible
16 Dec 9.4 06:45:09 10° WSW 06:46:23 11° SW 06:47:35 10° SSW visible
17 Dec 9.5 03:51:08 20° SE 03:51:08 20° SE 03:52:37 10° ESE visible
17 Dec 8.6 05:28:43 22° SW 05:29:26 22° SW 05:33:08 10° SSE visible
18 Dec 9.1 04:14:49 22° SSE 04:14:49 22° SSE 04:16:44 10° SE visible
18 Dec 9.3 05:52:23 12° WSW 05:53:27 12° SW 05:55:24 10° SSW visible
19 Dec 9.2 04:38:33 18° S 04:38:33 18° S 04:40:21 10° SSE visible
20 Dec 9.5 05:02:21 12° SSW 05:02:21 12° SSW 05:02:57 10° SSW visible
